Location: Unspecified
(0.0000°N, 0.0000°E)
Time: 08:14:01
(UTC+00:00)

ISS - All Passes

Search period start: 07 March 2026 00:00
Search period end: 17 March 2026 00:00
Orbit: 416 x 427 km, 51.6° (Epoch: 6 March)

Date Brightness Start Highest point End Pass type
(mag) Time Alt. Az. Time Alt. Az. Time Alt. Az.
7 Mar - 06:50:26 10° NW 06:53:38 46° SW 06:56:52 10° SSE daylight
7 Mar - 18:26:51 10° SW 18:30:15 75° NW 18:33:37 10° NNE visible
8 Mar - 06:03:25 10° NNW 06:06:44 68° NE 06:10:03 10° SE daylight
8 Mar - 17:40:04 10° SSW 17:43:19 43° SE 17:46:34 10° NE daylight
9 Mar - 05:16:54 10° N 05:19:48 28° NE 05:22:42 10° ESE visible
9 Mar - 16:53:49 10° S 16:56:22 20° SE 16:58:54 10° ENE daylight
9 Mar - 18:31:13 10° W 18:33:00 14° NW 18:34:46 10° NNW visible
10 Mar - 04:31:10 10° NNE 04:32:50 13° NE 04:34:29 10° E visible
10 Mar - 06:07:00 10° WNW 06:09:28 19° SW 06:11:56 10° S daylight
10 Mar - 17:43:02 10° WSW 17:46:01 28° NW 17:48:59 10° N daylight
11 Mar - 05:19:18 10° NW 05:22:29 42° SW 05:25:40 10° SSE visible
11 Mar - 16:55:39 10° SW 16:59:03 69° NW 17:02:25 10° NNE daylight
12 Mar - 04:32:11 10° NNW 04:35:30 74° NE 04:38:49 10° SE visible
12 Mar - 16:08:46 10° SSW 16:12:03 46° SE 16:15:19 10° NE daylight
13 Mar - 03:45:33 10° N 03:48:30 30° NE 03:51:28 10° ESE visible
13 Mar - 15:22:23 10° S 15:25:01 21° SE 15:27:40 10° ENE daylight
13 Mar - 17:00:05 10° W 17:01:39 13° NW 17:03:15 10° NNW daylight
14 Mar - 02:59:38 10° NNE 03:01:28 14° NE 03:03:18 10° E night (unlit)
14 Mar - 04:35:44 10° W 04:38:06 18° SW 04:40:28 10° S visible
14 Mar - 16:11:42 10° WSW 16:14:36 26° NW 16:17:32 10° N daylight
15 Mar - 03:47:54 10° NW 03:51:03 39° SW 03:54:12 10° SSE night (unlit)
15 Mar - 15:24:12 10° SW 15:27:34 64° NW 15:30:56 10° NNE daylight
16 Mar - 03:00:41 10° NNW 03:04:00 80° NE 03:07:20 10° SE night (unlit)
16 Mar - 14:37:12 10° SSW 14:40:30 50° SE 14:43:48 10° NE daylight
